This is the latest recevied weather packets stored in our database for station/object N2XGL-1. If no packets are shown the sender has not sent any weather packets the latest 10 day(s).
| Time | Temp. | Humidity | Pressure | Rain* | Wind** | Luminosity | Snow |
|---|---|---|---|---|---|---|---|
| 1778130943 | 0° C | 89% | 1018.3 hPa | 0 mm | - | - | - |
| 1778130358 | 0° C | 88% | 1018.4 hPa | 0 mm | - | - | - |
| 1778129873 | 0° C | 88% | 1018.6 hPa | 0 mm | - | - | - |
| 1778129329 | 0° C | 88% | 1018.6 hPa | 0 mm | - | - | - |
| 1778128879 | 0° C | 88% | 1018.7 hPa | 0 mm | - | - | - |
| 1778128841 | 0° C | 88% | 1018.7 hPa | 0 mm | - | - | - |
| 1778128501 | 0.56° C | 87% | 1018.8 hPa | 0 mm | - | - | - |
| 1778128341 | 0.56° C | 87% | 1018.8 hPa | 0 mm | - | - | - |
| 1778127840 | 0.56° C | 87% | 1018.9 hPa | 0 mm | - | - | - |
| 1778127763 | 0.56° C | 87% | 1018.9 hPa | 0 mm | - | - | - |
| 1778127178 | 0.56° C | 87% | 1019 hPa | 0 mm | - | - | - |
| 1778126699 | 0.56° C | 86% | 1018.9 hPa | 0 mm | - | - | - |
| 1778126584 | 0.56° C | 86% | 1018.9 hPa | 0 mm | - | - | - |
| 1778126059 | 0.56° C | 86% | 1019 hPa | 0 mm | - | - | - |
| 1778125523 | 1.11° C | 85% | 1019.1 hPa | 0 mm | - | - | - |
| 1778124939 | 1.11° C | 84% | 1019.3 hPa | 0 mm | - | - | - |
| 1778124440 | 1.11° C | 84% | 1019.3 hPa | 0 mm | - | - | - |
| 1778124359 | 1.11° C | 84% | 1019.3 hPa | 0 mm | - | - | - |
| 1778123819 | 1.11° C | 83% | 1019.1 hPa | 0 mm | - | - | - |
| 1778123299 | 1.67° C | 82% | 1019.1 hPa | 0 mm | - | - | - |
| 1778122723 | 1.67° C | 82% | 1019 hPa | 0 mm | - | - | - |
| 1778122203 | 2.22° C | 81% | 1019 hPa | 0 mm | - | - | - |
| 1778121657 | 2.78° C | 80% | 1018.9 hPa | 0 mm | - | - | - |
| 1778121608 | 2.78° C | 80% | 1018.9 hPa | 0 mm | - | - | - |
| 1778120449 | 2.78° C | 79% | 1018.8 hPa | 0 mm | - | - | - |
* Rain latest hour (hover to see other rain measurements)
** Current wind speed in m/s (hover to see current wind gust speed)